Regional Weather Roundup
Issued by NWS

Home | Current Version | Previous Version | Graphics & Text | Print | Product List | Glossary On
Versions: 1 2 3 4 5 6 7 8 9 10 11 12 13 14 15 16 17 18 19 20 21 22 23 24 25 26 27 28 29 30 31 32 33 34 35 36 37 38 39 40 41 42 43 44 45 46 47 48 49 50
476
ASUS43 KFSD 240402
RWRSD

WEATHER ROUNDUP FOR SOUTH DAKOTA
NATIONAL WEATHER SERVICE SIOUX FALLS SD
1100 PM CDT SUN APR 23 2017

NOTE: "FAIR" INDICATES FEW OR NO CLOUDS BELOW 12,000 FEET WITH NO
SIGNIFICANT WEATHER AND/OR OBSTRUCTIONS TO VISIBILITY.


SDZ001>005-009-010-012>017-240500-
NORTHWEST AND NORTH CENTRAL SOUTH DAKOTA

CITY           SKY/WX    TMP DP  RH WIND       PRES   REMARKS
BUFFALO          N/A     39  36  89 E23       29.60S
FAITH            N/A     36  35  96 NE24G33   29.64F
MOBRIDGE       CLOUDY    39  32  76 NE14G26   29.69F
$$

SDZ012>016-024>037-041>051-057-063-072>074-240500-
SOUTHWEST AND SOUTH CENTRAL SOUTH DAKOTA

CITY           SKY/WX    TMP DP  RH WIND       PRES   REMARKS
RAPID CTY ARPT CLOUDY    49  41  74 N12       29.62S
PIERRE         CLOUDY    50  42  74 N12       29.59F
CUSTER         CLOUDY    49  37  63 N7        29.71R
ELLSWORTH AFB  PTCLDY    51  42  71 NE10      29.63S
PHILIP         CLOUDY    49  42  77 NE15      29.61F
PINE RIDGE     CLOUDY    65  40  39 S16G29    29.59F
SPEARFISH      MOCLDY    50  45  81 SE10      29.69R
WINNER         FAIR      63  34  33 S22G30    29.64F
$$

SDZ004>011-016>023-039-040-240500-
NORTHEAST SOUTH DAKOTA

CITY           SKY/WX    TMP DP  RH WIND       PRES   REMARKS
ABERDEEN       CLOUDY    46  38  73 NE14      29.70F
WATERTOWN      CLOUDY    56  33  42 S10       29.72F
BROOKINGS      CLOUDY    58  32  37 S14       29.76F
SISSETON         N/A     47  39  74 E10       29.78F
$$

SDZ017-020-022-023-036>040-048>070-240500-
SOUTHEAST SOUTH DAKOTA

CITY           SKY/WX    TMP DP  RH WIND       PRES   REMARKS
SIOUX FALLS    CLOUDY    60  31  33 S16G25    29.79S
HURON          CLOUDY    61  31  32 S13       29.67F
CHAMBERLAIN    CLOUDY    64  32  29 SE18      29.64F
MITCHELL       CLOUDY    60  33  36 S18       29.71F
YANKTON        PTCLDY    59  30  33 S14       29.79S
$$

ABBREVIATIONS USED IN REMARKS
   TC - TEMPERATURE IN CELSIUS
  WCI - WIND CHILL INDEX
   HX - HEAT INDEX
  VSB - VISIBILITY





USA.gov is the U.S. government's official web portal to all federal, state and local government web resources and services.